Location: Peebles
(55.6412°N, 3.1714°W)
Time: 19:29:59
(UTC+00:00)

deb Kosmos-2123 - Visible Passes

Search period start: 28 November 2022 00:00
Search period end: 08 December 2022 00:00
Orbit: 943 x 984 km, 82.9° (Epoch: 28 November)

Date Brightness Start Highest point End Pass type
(mag) Time Alt. Az. Time Alt. Az. Time Alt. Az.
28 Nov ? 06:14:40 10° SE 06:19:12 22° E 06:23:43 10° NNE visible
28 Nov ? 16:58:39 10° N 17:03:49 27° ENE 17:08:56 10° ESE visible
28 Nov ? 18:43:31 10° NNW 18:49:38 76° W 18:55:42 10° S visible
28 Nov ? 20:30:00 10° NW 20:33:45 17° WNW 20:37:31 10° WSW visible
29 Nov ? 06:35:18 10° SE 06:40:42 32° E 06:46:03 10° NNE visible
29 Nov ? 17:20:18 10° N 17:26:02 39° ENE 17:31:41 10° SE visible
29 Nov ? 19:05:29 10° NNW 19:11:22 50° W 19:17:11 10° SSW visible
29 Nov ? 20:53:36 10° NW 20:55:02 11° WNW 20:56:29 10° W visible
30 Nov ? 05:17:38 10° ENE 05:18:39 10° ENE 05:19:40 10° ENE visible
30 Nov ? 06:56:23 10° SSE 07:02:17 48° E 07:08:10 10° NNE visible
30 Nov ? 17:42:03 10° N 17:48:05 57° ENE 17:54:05 10° SSE visible
30 Nov ? 19:27:35 10° NNW 19:32:58 33° W 19:38:19 10° SSW visible
01 Dec ? 05:36:15 10° ESE 05:39:55 17° ENE 05:43:34 10° NE visible
01 Dec ? 07:17:50 10° S 07:24:00 72° E 07:30:09 10° NNE visible
01 Dec ? 18:03:52 10° N 18:10:02 84° E 18:16:08 10° SSE visible
01 Dec ? 19:49:53 10° NNW 19:54:27 22° W 19:59:00 10° SW visible
02 Dec ? 05:56:27 10° SE 06:01:19 25° E 06:06:09 10° NNE visible
02 Dec ? 16:40:49 10° N 16:46:11 31° ENE 16:51:31 10° ESE visible
02 Dec ? 18:25:48 10° NNW 18:31:51 66° W 18:37:51 10° S visible
02 Dec ? 20:12:37 10° NW 20:15:49 15° WNW 20:19:00 10° WSW visible
03 Dec ? 06:17:16 10° SSE 06:22:50 37° E 06:28:23 10° NNE visible
03 Dec ? 17:02:30 10° N 17:08:20 44° ENE 17:14:09 10° SE visible
03 Dec ? 18:47:48 10° NNW 18:53:31 44° W 18:59:13 10° SSW visible
04 Dec ? 04:58:22 10° E 05:00:41 12° ENE 05:03:00 10° NE visible
04 Dec ? 06:38:28 10° SSE 06:44:28 55° E 06:50:27 10° NNE visible
04 Dec ? 17:24:16 10° N 17:30:22 66° ENE 17:36:25 10° SSE visible
04 Dec ? 19:09:57 10° NNW 19:15:05 29° W 19:20:12 10° SW visible
05 Dec ? 05:17:52 10° ESE 05:22:00 19° ENE 05:26:06 10° NE visible
05 Dec ? 07:00:03 10° S 07:06:14 82° E 07:12:24 10° NNE visible
05 Dec ? 17:46:07 10° NNW 17:52:16 85° W 17:58:21 10° S visible
05 Dec ? 19:32:21 10° NW 19:36:32 20° WNW 19:40:42 10° WSW visible
06 Dec ? 05:38:19 10° SE 05:43:26 28° E 05:48:31 10° NNE visible
06 Dec ? 07:21:58 10° SSW 07:28:06 69° WNW 07:34:15 10° N visible
06 Dec ? 16:22:59 10° N 16:28:32 35° ENE 16:34:03 10° SE visible
06 Dec ? 18:08:04 10° NNW 18:14:01 57° W 18:19:58 10° S visible
06 Dec ? 19:55:23 10° NW 19:57:51 13° WNW 20:00:19 10° W visible
07 Dec ? 05:59:15 10° SSE 06:04:59 42° E 06:10:42 10° NNE visible
07 Dec ? 16:44:42 10° N 16:50:39 51° ENE 16:56:33 10° SE visible
07 Dec ? 18:30:07 10° NNW 18:35:40 38° W 18:41:12 10° SSW visible
